| time (UTC) | temp F | wind direction | speed MPH | gust MPH | rain 1hr in | rain 24hr in | rain mn in | humidity % | barometer mb |
| 20260906083521 | 79 | 259 | 1.0 | 6.0 | 0.00 | 0.00 | 0.00 | 24 | 1007.1 |
| 20260906083020 | 79 | 258 | 1.0 | 6.0 | 0.00 | 0.00 | 0.00 | 24 | 1007.1 |
| 20260906082518 | 79 | 256 | 1.0 | 5.0 | 0.00 | 0.00 | 0.00 | 24 | 1007.2 |
| 20260906082018 | 79 | 248 | 1.0 | 4.0 | 0.00 | 0.00 | 0.00 | 24 | 1007.2 |
| 20260906081517 | 79 | 240 | 0.0 | 4.0 | 0.00 | 0.00 | 0.00 | 24 | 1007.3 |
| 20260906081017 | 79 | 230 | 1.0 | 5.0 | 0.00 | 0.00 | 0.00 | 24 | 1007.3 |
| 20260906080519 | 79 | 226 | 2.0 | 5.0 | 0.00 | 0.00 | 0.00 | 23 | 1007.3 |
| 20260906080016 | 79 | 229 | 2.0 | 5.0 | 0.00 | 0.00 | 0.00 | 23 | 1007.3 |
| 20260906075515 | 80 | 227 | 2.0 | 5.0 | 0.00 | 0.00 | 0.00 | 23 | 1007.3 |
| 20260906075018 | 80 | 229 | 1.0 | 3.0 | 0.00 | 0.00 | 0.00 | 23 | 1007.2 |
| 20260906074515 | 80 | 229 | 1.0 | 4.0 | 0.00 | 0.00 | 0.00 | 22 | 1007.3 |
| 20260906074016 | 80 | 229 | 1.0 | 4.0 | 0.00 | 0.00 | 0.00 | 22 | 1007.5 |
| 20260906073512 | 80 | 230 | 1.0 | 7.0 | 0.00 | 0.00 | 0.00 | 22 | 1007.4 |
| 20260906073011 | 80 | 230 | 1.0 | 4.0 | 0.00 | 0.00 | 0.00 | 22 | 1007.5 |
| 20260906072510 | 81 | 229 | 1.0 | 5.0 | 0.00 | 0.00 | 0.00 | 22 | 1007.5 |
| 20260906072010 | 81 | 229 | 2.0 | 5.0 | 0.00 | 0.00 | 0.00 | 22 | 1007.3 |
| 20260906071509 | 81 | 234 | 1.0 | 5.0 | 0.00 | 0.00 | 0.00 | 23 | 1007.3 |
| 20260906071009 | 81 | 232 | 2.0 | 5.0 | 0.00 | 0.00 | 0.00 | 24 | 1007.3 |
| 20260906070508 | 81 | 229 | 2.0 | 8.0 | 0.00 | 0.00 | 0.00 | 24 | 1007.4 |
| 20260906070008 | 81 | 242 | 2.0 | 8.0 | 0.00 | 0.00 | 0.00 | 24 | 1007.3 |
| 20260906065507 | 81 | 229 | 1.0 | 5.0 | 0.00 | 0.00 | 0.00 | 24 | 1007.4 |
| 20260906065008 | 81 | 227 | 1.0 | 5.0 | 0.00 | 0.00 | 0.00 | 24 | 1007.2 |
| 20260906064515 | 81 | 230 | 1.0 | 5.0 | 0.00 | 0.00 | 0.00 | 24 | 1007.3 |
| 20260906064006 | 81 | 213 | 2.0 | 5.0 | 0.00 | 0.00 | 0.00 | 24 | 1007.3 |
| 20260906063505 | 82 | 223 | 1.0 | 4.0 | 0.00 | 0.00 | 0.00 | 24 | 1007.3 |
| 20260906063007 | 82 | 234 | 1.0 | 4.0 | 0.00 | 0.00 | 0.00 | 24 | 1007.3 |
| 20260906062505 | 82 | 221 | 0.0 | 4.0 | 0.00 | 0.00 | 0.00 | 24 | 1007.2 |
| 20260906062007 | 82 | 227 | 1.0 | 6.0 | 0.00 | 0.00 | 0.00 | 23 | 1007.2 |
| 20260906061506 | 82 | 226 | 2.0 | 6.0 | 0.00 | 0.00 | 0.00 | 23 | 1007.3 |
| 20260906061006 | 82 | 228 | 1.0 | 7.0 | 0.00 | 0.00 | 0.00 | 23 | 1007.3 |
| 20260906060505 | 82 | 235 | 3.0 | 7.0 | 0.00 | 0.00 | 0.00 | 23 | 1007.3 |
| 20260906060005 | 82 | 222 | 2.0 | 7.0 | 0.00 | 0.00 | 0.00 | 23 | 1007.3 |
| 20260906055505 | 82 | 229 | 2.0 | 8.0 | 0.00 | 0.00 | 0.00 | 23 | 1007.3 |
| 20260906055006 | 82 | 222 | 1.0 | 8.0 | 0.00 | 0.00 | 0.00 | 23 | 1007.4 |
| 20260906054504 | 82 | 221 | 1.0 | 5.0 | 0.00 | 0.00 | 0.00 | 23 | 1007.5 |
| 20260906054004 | 82 | 218 | 1.0 | 5.0 | 0.00 | 0.00 | 0.00 | 24 | 1007.5 |
| 20260906053506 | 82 | 223 | 1.0 | 3.0 | 0.00 | 0.00 | 0.00 | 24 | 1007.5 |
| 20260906053004 | 82 | 223 | 0.0 | 4.0 | 0.00 | 0.00 | 0.00 | 23 | 1007.5 |
| 20260906052503 | 82 | 223 | 0.0 | 4.0 | 0.00 | 0.00 | 0.00 | 23 | 1007.6 |
| 20260906052004 | 82 | 224 | 1.0 | 4.0 | 0.00 | 0.00 | 0.00 | 23 | 1007.6 |
| 20260906051503 | 82 | 223 | 1.0 | 3.0 | 0.00 | 0.00 | 0.00 | 23 | 1007.6 |
| 20260906051003 | 82 | 223 | 0.0 | 5.0 | 0.00 | 0.00 | 0.00 | 23 | 1007.6 |
| 20260906050503 | 82 | 223 | 1.0 | 5.0 | 0.00 | 0.00 | 0.00 | 23 | 1007.6 |
| 20260906050011 | 82 | 230 | 2.0 | 5.0 | 0.00 | 0.00 | 0.00 | 23 | 1007.6 |
| 20260906045507 | 82 | 223 | 0.0 | 3.0 | 0.00 | 0.00 | 0.00 | 23 | 1007.6 |
| 20260906045005 | 82 | 223 | 0.0 | 4.0 | 0.00 | 0.00 | 0.00 | 23 | 1007.6 |
| 20260906044504 | 82 | 223 | 1.0 | 4.0 | 0.00 | 0.00 | 0.00 | 23 | 1007.6 |
| 20260906044007 | 82 | 221 | 1.0 | 4.0 | 0.00 | 0.00 | 0.00 | 23 | 1007.6 |
| 20260906043502 | 83 | 222 | 0.0 | 5.0 | 0.00 | 0.00 | 0.00 | 23 | 1007.7 |
| 20260906043003 | 83 | 222 | 0.0 | 5.0 | 0.00 | 0.00 | 0.00 | 23 | 1007.7 |
| 20260906042501 | 83 | 227 | 2.0 | 7.0 | 0.00 | 0.00 | 0.00 | 23 | 1007.8 |
| 20260906042002 | 83 | 213 | 2.0 | 7.0 | 0.00 | 0.00 | 0.00 | 22 | 1007.7 |
| 20260906041503 | 83 | 221 | 1.0 | 4.0 | 0.00 | 0.00 | 0.00 | 22 | 1007.7 |
| 20260906041001 | 83 | 215 | 1.0 | 4.0 | 0.00 | 0.00 | 0.00 | 22 | 1007.6 |
| 20260906040502 | 83 | 216 | 1.0 | 5.0 | 0.00 | 0.00 | 0.00 | 22 | 1007.7 |
| 20260906040002 | 83 | 232 | 1.0 | 5.0 | 0.00 | 0.00 | 0.00 | 22 | 1007.5 |
| 20260906035501 | 84 | 223 | 2.0 | 8.0 | 0.00 | 0.00 | 0.00 | 22 | 1007.5 |
| 20260906035002 | 84 | 227 | 2.0 | 8.0 | 0.00 | 0.00 | 0.00 | 22 | 1007.4 |
| 20260906034502 | 84 | 209 | 4.0 | 8.0 | 0.00 | 0.00 | 0.00 | 22 | 1007.3 |
| 20260906034001 | 84 | 219 | 1.0 | 8.0 | 0.00 | 0.00 | 0.00 | 21 | 1007.3 |
| 20260906033600 | 84 | 219 | 1.0 | 8.0 | 0.00 | 0.00 | 0.00 | 21 | 1007.2 |
| 20260906033103 | 84 | 213 | 3.0 | 8.0 | 0.00 | 0.00 | 0.00 | 21 | 1007.2 |
| 20260906032600 | 84 | 216 | 2.0 | 7.0 | 0.00 | 0.00 | 0.00 | 21 | 1007.2 |
| 20260906032100 | 84 | 208 | 2.0 | 7.0 | 0.00 | 0.00 | 0.00 | 21 | 1007.1 |
| 20260906031625 | 84 | 205 | 3.0 | 8.0 | 0.00 | 0.00 | 0.00 | 21 | 1007.0 |
| 20260906031100 | 84 | 229 | 2.0 | 10.0 | 0.00 | 0.00 | 0.00 | 21 | 1007.0 |
| 20260906030600 | 84 | 216 | 3.0 | 10.0 | 0.00 | 0.00 | 0.00 | 21 | 1006.9 |
| 20260906030100 | 84 | 219 | 3.0 | 10.0 | 0.00 | 0.00 | 0.00 | 21 | 1006.9 |
| 20260906025559 | 84 | 215 | 4.0 | 10.0 | 0.00 | 0.00 | 0.00 | 21 | 1006.8 |
| 20260906025100 | 85 | 220 | 2.0 | 10.0 | 0.00 | 0.00 | 0.00 | 21 | 1006.8 |
| 20260906024604 | 85 | 211 | 4.0 | 15.0 | 0.00 | 0.00 | 0.00 | 21 | 1006.7 |
| 20260906024101 | 85 | 204 | 4.0 | 11.0 | 0.00 | 0.00 | 0.00 | 20 | 1006.7 |
| 20260906023601 | 85 | 238 | 3.0 | 13.0 | 0.00 | 0.00 | 0.00 | 20 | 1006.7 |
| 20260906023111 | 85 | 210 | 4.0 | 13.0 | 0.00 | 0.00 | 0.00 | 20 | 1006.6 |
| 20260906022602 | 85 | 198 | 4.0 | 10.0 | 0.00 | 0.00 | 0.00 | 20 | 1006.6 |
| 20260906022059 | 85 | 207 | 4.0 | 10.0 | 0.00 | 0.00 | 0.00 | 20 | 1006.6 |
| 20260906021600 | 85 | 207 | 3.0 | 10.0 | 0.00 | 0.00 | 0.00 | 20 | 1006.5 |
| 20260906021058 | 85 | 171 | 3.0 | 11.0 | 0.00 | 0.00 | 0.00 | 20 | 1006.6 |
| 20260906020559 | 85 | 194 | 2.0 | 11.0 | 0.00 | 0.00 | 0.00 | 20 | 1006.6 |
| 20260906020101 | 86 | 175 | 4.0 | 16.0 | 0.00 | 0.00 | 0.00 | 19 | 1006.6 |
| 20260906015557 | 86 | 183 | 6.0 | 11.0 | 0.00 | 0.00 | 0.00 | 19 | 1006.6 |
| 20260906015058 | 86 | 223 | 2.0 | 9.0 | 0.00 | 0.00 | 0.00 | 19 | 1006.6 |
| 20260906014558 | 86 | 196 | 2.0 | 11.0 | 0.00 | 0.00 | 0.00 | 19 | 1006.7 |
| 20260906014057 | 86 | 217 | 4.0 | 11.0 | 0.00 | 0.00 | 0.00 | 19 | 1006.7 |
| 20260906013557 | 86 | 194 | 4.0 | 11.0 | 0.00 | 0.00 | 0.00 | 19 | 1006.7 |
| 20260906013057 | 87 | 173 | 5.0 | 10.0 | 0.00 | 0.00 | 0.00 | 19 | 1006.7 |
| 20260906012556 | 87 | 198 | 6.0 | 11.0 | 0.00 | 0.00 | 0.00 | 18 | 1006.7 |
| 20260906012157 | 87 | 165 | 4.0 | 11.0 | 0.00 | 0.00 | 0.00 | 18 | 1006.7 |
| 20260906011604 | 88 | 209 | 3.0 | 8.0 | 0.00 | 0.00 | 0.00 | 17 | 1006.8 |
| 20260906011057 | 88 | 199 | 3.0 | 8.0 | 0.00 | 0.00 | 0.00 | 17 | 1006.7 |
| 20260906010555 | 88 | 201 | 4.0 | 12.0 | 0.00 | 0.00 | 0.00 | 17 | 1006.8 |
| 20260906010056 | 88 | 200 | 5.0 | 12.0 | 0.00 | 0.00 | 0.00 | 17 | 1006.7 |
| 20260906005556 | 88 | 202 | 3.0 | 13.0 | 0.00 | 0.00 | 0.00 | 17 | 1006.7 |
| 20260906005056 | 88 | 211 | 7.0 | 13.0 | 0.00 | 0.00 | 0.00 | 16 | 1006.6 |
| 20260906004559 | 89 | 208 | 6.0 | 12.0 | 0.00 | 0.00 | 0.00 | 16 | 1006.6 |
| 20260906004054 | 89 | 196 | 6.0 | 14.0 | 0.00 | 0.00 | 0.00 | 16 | 1006.6 |
| 20260906003554 | 89 | 195 | 7.0 | 10.0 | 0.00 | 0.00 | 0.00 | 15 | 1006.6 |
| 20260906003055 | 90 | 204 | 6.0 | 14.0 | 0.00 | 0.00 | 0.00 | 15 | 1006.6 |
| 20260906002556 | 90 | 211 | 5.0 | 14.0 | 0.00 | 0.00 | 0.00 | 15 | 1006.6 |
| 20260906002053 | 90 | 169 | 5.0 | 13.0 | 0.00 | 0.00 | 0.00 | 14 | 1006.6 |
| 20260906001554 | 90 | 224 | 4.0 | 10.0 | 0.00 | 0.00 | 0.00 | 13 | 1006.6 |
| 20260906001054 | 91 | 189 | 3.0 | 11.0 | 0.00 | 0.00 | 0.00 | 12 | 1006.6 |
| 20260906000552 | 91 | 218 | 5.0 | 11.0 | 0.00 | 0.00 | 0.00 | 12 | 1006.6 |
| 20260906000100 | 91 | 183 | 2.0 | 8.0 | 0.00 | 0.00 | 0.00 | 11 | 1006.7 |
| 20260905235552 | 91 | 215 | 3.0 | 8.0 | 0.00 | 0.00 | 0.00 | 10 | 1006.7 |
| 20260905235052 | 91 | 210 | 3.0 | 9.0 | 0.00 | 0.00 | 0.00 | 10 | 1006.7 |
| 20260905234554 | 91 | 250 | 3.0 | 10.0 | 0.00 | 0.00 | 0.00 | 10 | 1006.7 |
| 20260905234055 | 91 | 223 | 5.0 | 10.0 | 0.00 | 0.00 | 0.00 | 11 | 1006.7 |
| 20260905233549 | 91 | 260 | 4.0 | 12.0 | 0.00 | 0.00 | 0.00 | 10 | 1006.7 |
| 20260905233053 | 90 | 184 | 3.0 | 16.0 | 0.00 | 0.00 | 0.00 | 10 | 1006.7 |
| 20260905232549 | 90 | 194 | 7.0 | 16.0 | 0.00 | 0.00 | 0.00 | 10 | 1006.6 |
| 20260905232048 | 91 | 200 | 8.0 | 16.0 | 0.00 | 0.00 | 0.00 | 10 | 1006.8 |
| 20260905231549 | 91 | 200 | 6.0 | 13.0 | 0.00 | 0.00 | 0.00 | 9 | 1006.7 |
| 20260905231047 | 91 | 200 | 6.0 | 13.0 | 0.00 | 0.00 | 0.00 | 9 | 1006.7 |
| 20260905230547 | 90 | 190 | 6.0 | 16.0 | 0.00 | 0.00 | 0.00 | 10 | 1006.7 |
| 20260905230047 | 90 | 200 | 9.0 | 19.0 | 0.00 | 0.00 | 0.00 | 9 | 1006.7 |
| 20260905225546 | 91 | 198 | 8.0 | 19.0 | 0.00 | 0.00 | 0.00 | 9 | 1006.8 |
| 20260905225046 | 91 | 211 | 5.0 | 17.0 | 0.00 | 0.00 | 0.00 | 9 | 1006.8 |
| 20260905224547 | 90 | 196 | 8.0 | 23.0 | 0.00 | 0.00 | 0.00 | 9 | 1006.8 |
| 20260905224045 | 90 | 200 | 5.0 | 15.0 | 0.00 | 0.00 | 0.00 | 9 | 1006.8 |
| 20260905223544 | 90 | 194 | 7.0 | 19.0 | 0.00 | 0.00 | 0.00 | 9 | 1006.9 |
| 20260905223043 | 90 | 171 | 9.0 | 20.0 | 0.00 | 0.00 | 0.00 | 9 | 1007.0 |
| 20260905222543 | 90 | 182 | 9.0 | 18.0 | 0.00 | 0.00 | 0.00 | 9 | 1007.0 |
| 20260905222043 | 90 | 196 | 8.0 | 18.0 | 0.00 | 0.00 | 0.00 | 9 | 1007.1 |
| 20260905221558 | 90 | 262 | 7.0 | 12.0 | 0.00 | 0.00 | 0.00 | 9 | 1007.2 |
| 20260905221042 | 90 | 212 | 6.0 | 20.0 | 0.00 | 0.00 | 0.00 | 8 | 1007.2 |
| 20260905220541 | 90 | 194 | 6.0 | 20.0 | 0.00 | 0.00 | 0.00 | 8 | 1007.3 |
| 20260905220041 | 90 | 218 | 8.0 | 17.0 | 0.00 | 0.00 | 0.00 | 7 | 1007.4 |
| 20260905215541 | 90 | 200 | 7.0 | 17.0 | 0.00 | 0.00 | 0.00 | 8 | 1007.4 |
| 20260905215042 | 90 | 250 | 6.0 | 17.0 | 0.00 | 0.00 | 0.00 | 7 | 1007.5 |
| 20260905214540 | 90 | 196 | 6.0 | 16.0 | 0.00 | 0.00 | 0.00 | 7 | 1007.6 |
| 20260905214040 | 90 | 235 | 6.0 | 19.0 | 0.00 | 0.00 | 0.00 | 7 | 1007.7 |
| 20260905213539 | 90 | 215 | 9.0 | 19.0 | 0.00 | 0.00 | 0.00 | 7 | 1007.8 |
| 20260905213039 | 90 | 236 | 6.0 | 15.0 | 0.00 | 0.00 | 0.00 | 6 | 1007.8 |
| 20260905212539 | 90 | 249 | 8.0 | 14.0 | 0.00 | 0.00 | 0.00 | 6 | 1008.0 |
| 20260905212038 | 91 | 197 | 7.0 | 14.0 | 0.00 | 0.00 | 0.00 | 6 | 1007.9 |
| 20260905211537 | 90 | 207 | 4.0 | 14.0 | 0.00 | 0.00 | 0.00 | 6 | 1008.0 |
| 20260905211037 | 90 | 191 | 8.0 | 12.0 | 0.00 | 0.00 | 0.00 | 6 | 1007.9 |
| 20260905210540 | 90 | 236 | 5.0 | 12.0 | 0.00 | 0.00 | 0.00 | 8 | 1008.0 |
| 20260905210037 | 91 | 211 | 6.0 | 12.0 | 0.00 | 0.00 | 0.00 | 7 | 1008.1 |
| 20260905205537 | 90 | 222 | 8.0 | 16.0 | 0.00 | 0.00 | 0.00 | 6 | 1008.0 |
| 20260905205037 | 90 | 193 | 7.0 | 16.0 | 0.00 | 0.00 | 0.00 | 7 | 1008.0 |
| 20260905204541 | 90 | 240 | 6.0 | 12.0 | 0.00 | 0.00 | 0.00 | 8 | 1008.0 |
| 20260905204037 | 90 | 204 | 6.0 | 15.0 | 0.00 | 0.00 | 0.00 | 8 | 1008.1 |
| 20260905203535 | 90 | 190 | 6.0 | 15.0 | 0.00 | 0.00 | 0.00 | 8 | 1008.1 |
| 20260905203035 | 90 | 213 | 4.0 | 16.0 | 0.00 | 0.00 | 0.00 | 8 | 1008.1 |
| 20260905202535 | 90 | 238 | 6.0 | 18.0 | 0.00 | 0.00 | 0.00 | 8 | 1008.0 |
| 20260905202034 | 89 | 252 | 7.0 | 18.0 | 0.00 | 0.00 | 0.00 | 8 | 1008.2 |
| 20260905201537 | 90 | 307 | 5.0 | 12.0 | 0.00 | 0.00 | 0.00 | 8 | 1008.2 |
| 20260905201035 | 90 | 228 | 8.0 | 14.0 | 0.00 | 0.00 | 0.00 | 7 | 1008.1 |
| 20260905200537 | 90 | 259 | 6.0 | 14.0 | 0.00 | 0.00 | 0.00 | 8 | 1008.2 |
| 20260905200037 | 89 | 248 | 4.0 | 16.0 | 0.00 | 0.00 | 0.00 | 8 | 1008.3 |
| 20260905195532 | 89 | 236 | 6.0 | 16.0 | 0.00 | 0.00 | 0.00 | 8 | 1008.4 |
| 20260905195032 | 89 | 191 | 7.0 | 15.0 | 0.00 | 0.00 | 0.00 | 8 | 1008.4 |
| 20260905194532 | 89 | 294 | 8.0 | 15.0 | 0.00 | 0.00 | 0.00 | 8 | 1008.3 |
| 20260905194032 | 89 | 232 | 6.0 | 14.0 | 0.00 | 0.00 | 0.00 | 9 | 1008.3 |
| 20260905193531 | 89 | 209 | 5.0 | 14.0 | 0.00 | 0.00 | 0.00 | 8 | 1008.4 |
| 20260905193040 | 89 | 245 | 7.0 | 14.0 | 0.00 | 0.00 | 0.00 | 8 | 1008.4 |
| 20260905192533 | 89 | 196 | 6.0 | 14.0 | 0.00 | 0.00 | 0.00 | 8 | 1008.4 |
| 20260905192030 | 89 | 234 | 7.0 | 13.0 | 0.00 | 0.00 | 0.00 | 8 | 1008.3 |
| 20260905191530 | 89 | 231 | 6.0 | 13.0 | 0.00 | 0.00 | 0.00 | 9 | 1008.5 |
| 20260905191029 | 89 | 245 | 6.0 | 12.0 | 0.00 | 0.00 | 0.00 | 9 | 1008.4 |
| 20260905190529 | 88 | 248 | 4.0 | 13.0 | 0.00 | 0.00 | 0.00 | 9 | 1008.5 |
| 20260905190039 | 88 | 263 | 4.0 | 13.0 | 0.00 | 0.00 | 0.00 | 9 | 1008.6 |
| 20260905185529 | 88 | 184 | 6.0 | 12.0 | 0.00 | 0.00 | 0.00 | 9 | 1008.8 |
| 20260905185030 | 88 | 239 | 3.0 | 11.0 | 0.00 | 0.00 | 0.00 | 10 | 1008.7 |
| 20260905184527 | 88 | 242 | 6.0 | 11.0 | 0.00 | 0.00 | 0.00 | 10 | 1008.8 |
| 20260905184026 | 87 | 217 | 4.0 | 10.0 | 0.00 | 0.00 | 0.00 | 10 | 1008.8 |
| 20260905183524 | 87 | 169 | 2.0 | 16.0 | 0.00 | 0.00 | 0.00 | 12 | 1008.8 |
| 20260905183023 | 86 | 221 | 4.0 | 10.0 | 0.00 | 0.00 | 0.00 | 12 | 1008.9 |
| 20260905182522 | 86 | 163 | 5.0 | 10.0 | 0.00 | 0.00 | 0.00 | 15 | 1009.0 |
| 20260905182021 | 86 | 171 | 3.0 | 13.0 | 0.00 | 0.00 | 0.00 | 15 | 1009.0 |
| 20260905181521 | 85 | 142 | 5.0 | 13.0 | 0.00 | 0.00 | 0.00 | 16 | 1009.0 |
| 20260905181020 | 85 | 127 | 5.0 | 10.0 | 0.00 | 0.00 | 0.00 | 17 | 1009.0 |
| 20260905180520 | 85 | 154 | 3.0 | 16.0 | 0.00 | 0.00 | 0.00 | 17 | 1009.0 |
| 20260905180025 | 85 | 140 | 8.0 | 16.0 | 0.00 | 0.00 | 0.00 | 17 | 1008.9 |
| 20260905175519 | 84 | 102 | 2.0 | 10.0 | 0.00 | 0.00 | 0.00 | 18 | 1009.0 |
| 20260905175018 | 84 | 144 | 3.0 | 10.0 | 0.00 | 0.00 | 0.00 | 18 | 1008.9 |
| 20260905174517 | 83 | 84 | 4.0 | 14.0 | 0.00 | 0.00 | 0.00 | 19 | 1008.9 |
| 20260905174016 | 83 | 132 | 6.0 | 14.0 | 0.00 | 0.00 | 0.00 | 19 | 1008.9 |
| 20260905173515 | 83 | 138 | 4.0 | 12.0 | 0.00 | 0.00 | 0.00 | 20 | 1008.9 |
| 20260905173015 | 82 | 71 | 6.0 | 13.0 | 0.00 | 0.00 | 0.00 | 20 | 1008.9 |
| 20260905172514 | 82 | 98 | 5.0 | 13.0 | 0.00 | 0.00 | 0.00 | 20 | 1008.9 |
| 20260905172015 | 82 | 146 | 5.0 | 12.0 | 0.00 | 0.00 | 0.00 | 20 | 1009.0 |
| 20260905171516 | 82 | 155 | 7.0 | 12.0 | 0.00 | 0.00 | 0.00 | 20 | 1009.1 |
| 20260905171013 | 82 | 131 | 6.0 | 13.0 | 0.00 | 0.00 | 0.00 | 20 | 1009.0 |
| 20260905170513 | 82 | 140 | 6.0 | 13.0 | 0.00 | 0.00 | 0.00 | 20 | 1009.0 |
| 20260905170014 | 81 | 88 | 4.0 | 13.0 | 0.00 | 0.00 | 0.00 | 21 | 1008.9 |
| 20260905165515 | 81 | 136 | 6.0 | 12.0 | 0.00 | 0.00 | 0.00 | 21 | 1008.9 |
| 20260905165012 | 81 | 134 | 4.0 | 14.0 | 0.00 | 0.00 | 0.00 | 22 | 1008.8 |
| 20260905164512 | 81 | 142 | 7.0 | 14.0 | 0.00 | 0.00 | 0.00 | 22 | 1008.9 |
| 20260905164010 | 81 | 146 | 3.0 | 11.0 | 0.00 | 0.00 | 0.00 | 23 | 1008.9 |
| 20260905163514 | 81 | 167 | 5.0 | 16.0 | 0.00 | 0.00 | 0.00 | 22 | 1008.8 |
| 20260905163011 | 82 | 138 | 5.0 | 16.0 | 0.00 | 0.00 | 0.00 | 21 | 1008.7 |
| 20260905162511 | 82 | 166 | 4.0 | 12.0 | 0.00 | 0.00 | 0.00 | 17 | 1008.7 |
| 20260905162008 | 82 | 201 | 4.0 | 10.0 | 0.00 | 0.00 | 0.00 | 17 | 1008.6 |
| 20260905161516 | 82 | 185 | 3.0 | 10.0 | 0.00 | 0.00 | 0.00 | 18 | 1008.6 |
| 20260905161006 | 81 | 165 | 2.0 | 8.0 | 0.00 | 0.00 | 0.00 | 19 | 1008.6 |
| 20260905160505 | 80 | 176 | 4.0 | 7.0 | 0.00 | 0.00 | 0.00 | 20 | 1008.6 |
| 20260905160006 | 79 | 163 | 2.0 | 7.0 | 0.00 | 0.00 | 0.00 | 23 | 1008.6 |
| 20260905155503 | 78 | 149 | 0.0 | 3.0 | 0.00 | 0.00 | 0.00 | 27 | 1008.7 |
| 20260905155002 | 77 | 150 | 0.0 | 6.0 | 0.00 | 0.00 | 0.00 | 27 | 1008.6 |
| 20260905154502 | 76 | 150 | 1.0 | 6.0 | 0.00 | 0.00 | 0.00 | 27 | 1008.6 |
| 20260905154003 | 76 | 151 | 0.0 | 6.0 | 0.00 | 0.00 | 0.00 | 28 | 1008.7 |
| 20260905153501 | 75 | 150 | 0.0 | 6.0 | 0.00 | 0.00 | 0.00 | 29 | 1008.8 |
| 20260905153001 | 75 | 151 | 1.0 | 6.0 | 0.00 | 0.00 | 0.00 | 29 | 1008.8 |
| 20260905152602 | 75 | 150 | 2.0 | 7.0 | 0.00 | 0.00 | 0.00 | 29 | 1008.8 |
| 20260905152100 | 74 | 152 | 1.0 | 7.0 | 0.00 | 0.00 | 0.00 | 29 | 1008.7 |
| 20260905151600 | 74 | 151 | 1.0 | 6.0 | 0.00 | 0.00 | 0.00 | 29 | 1008.6 |
| 20260905151059 | 74 | 151 | 2.0 | 6.0 | 0.00 | 0.00 | 0.00 | 29 | 1008.7 |
| 20260905150603 | 75 | 155 | 1.0 | 5.0 | 0.00 | 0.00 | 0.00 | 29 | 1008.5 |
| 20260905150059 | 75 | 155 | 1.0 | 3.0 | 0.00 | 0.00 | 0.00 | 29 | 1008.5 |
| 20260905145558 | 74 | 155 | 0.0 | 3.0 | 0.00 | 0.00 | 0.00 | 30 | 1008.5 |
| 20260905145058 | 73 | 155 | 0.0 | 5.0 | 0.00 | 0.00 | 0.00 | 31 | 1008.4 |
| 20260905144559 | 73 | 155 | 1.0 | 5.0 | 0.00 | 0.00 | 0.00 | 31 | 1008.5 |
| 20260905144058 | 73 | 155 | 1.0 | 5.0 | 0.00 | 0.00 | 0.00 | 31 | 1008.5 |
| 20260905143557 | 74 | 155 | 1.0 | 3.0 | 0.00 | 0.00 | 0.00 | 30 | 1008.4 |
| 20260905143100 | 74 | 155 | 0.0 | 2.0 | 0.00 | 0.00 | 0.00 | 29 | 1008.4 |
| 20260905142555 | 74 | 155 | 0.0 | 0.0 | 0.00 | 0.00 | 0.00 | 30 | 1008.3 |
| 20260905142056 | 72 | 155 | 0.0 | 1.0 | 0.00 | 0.00 | 0.00 | 30 | 1008.3 |
| 20260905141555 | 72 | 155 | 0.0 | 1.0 | 0.00 | 0.00 | 0.00 | 30 | 1008.2 |
| 20260905141055 | 71 | 155 | 0.0 | 0.0 | 0.00 | 0.00 | 0.00 | 32 | 1008.2 |
| 20260905140554 | 70 | 155 | 0.0 | 1.0 | 0.00 | 0.00 | 0.00 | 32 | 1008.1 |
| 20260905140059 | 70 | 155 | 0.0 | 1.0 | 0.00 | 0.00 | 0.00 | 32 | 1008.1 |
| 20260905135553 | 69 | 155 | 0.0 | 0.0 | 0.00 | 0.00 | 0.00 | 33 | 1008.1 |
| 20260905135052 | 69 | 155 | 0.0 | 1.0 | 0.00 | 0.00 | 0.00 | 33 | 1007.9 |
| 20260905134600 | 68 | 155 | 0.0 | 1.0 | 0.00 | 0.00 | 0.00 | 33 | 1007.8 |
| 20260905134050 | 68 | 155 | 0.0 | 1.0 | 0.00 | 0.00 | 0.00 | 34 | 1007.6 |
| 20260905133550 | 68 | 155 | 0.0 | 0.0 | 0.00 | 0.00 | 0.00 | 34 | 1007.5 |
| 20260905133050 | 68 | 155 | 0.0 | 0.0 | 0.00 | 0.00 | 0.00 | 34 | 1007.5 |
| 20260905132548 | 68 | 155 | 0.0 | 1.0 | 0.00 | 0.00 | 0.00 | 33 | 1007.4 |
| 20260905132049 | 68 | 155 | 0.0 | 1.0 | 0.00 | 0.00 | 0.00 | 34 | 1007.4 |
| 20260905131547 | 68 | 155 | 0.0 | 0.0 | 0.00 | 0.00 | 0.00 | 33 | 1007.2 |
| 20260905131046 | 68 | 155 | 0.0 | 0.0 | 0.00 | 0.00 | 0.00 | 33 | 1007.2 |
| 20260905130547 | 68 | 155 | 0.0 | 0.0 | 0.00 | 0.00 | 0.00 | 34 | 1007.2 |
| 20260905130045 | 68 | 155 | 0.0 | 0.0 | 0.00 | 0.00 | 0.00 | 33 | 1007.1 |
| 20260905125544 | 68 | 155 | 0.0 | 0.0 | 0.00 | 0.00 | 0.00 | 33 | 1007.1 |
| 20260905125046 | 68 | 155 | 0.0 | 0.0 | 0.00 | 0.00 | 0.00 | 33 | 1007.1 |
| 20260905124547 | 68 | 155 | 0.0 | 0.0 | 0.00 | 0.00 | 0.00 | 33 | 1007.0 |
| 20260905124042 | 68 | 155 | 0.0 | 0.0 | 0.00 | 0.00 | 0.00 | 33 | 1007.0 |
| 20260905123542 | 69 | 155 | 0.0 | 0.0 | 0.00 | 0.00 | 0.00 | 33 | 1007.0 |
| 20260905123042 | 68 | 155 | 0.0 | 0.0 | 0.00 | 0.00 | 0.00 | 33 | 1007.0 |
| 20260905122541 | 68 | 155 | 0.0 | 0.0 | 0.00 | 0.00 | 0.00 | 33 | 1007.0 |
| 20260905122041 | 69 | 155 | 0.0 | 0.0 | 0.00 | 0.00 | 0.00 | 33 | 1007.0 |
| 20260905121544 | 69 | 155 | 0.0 | 0.0 | 0.00 | 0.00 | 0.00 | 33 | 1006.9 |
| 20260905121041 | 69 | 155 | 0.0 | 0.0 | 0.00 | 0.00 | 0.00 | 33 | 1006.9 |
| 20260905120540 | 69 | 155 | 0.0 | 0.0 | 0.00 | 0.00 | 0.00 | 33 | 1006.9 |
| 20260905120053 | 69 | 155 | 0.0 | 0.0 | 0.00 | 0.00 | 0.00 | 33 | 1007.0 |
| 20260905115538 | 69 | 155 | 0.0 | 0.0 | 0.00 | 0.00 | 0.00 | 32 | 1007.0 |
| 20260905115037 | 69 | 155 | 0.0 | 0.0 | 0.00 | 0.00 | 0.00 | 33 | 1007.0 |
| 20260905114546 | 69 | 155 | 0.0 | 0.0 | 0.00 | 0.00 | 0.00 | 33 | 1006.9 |
| 20260905114036 | 69 | 155 | 0.0 | 0.0 | 0.00 | 0.00 | 0.00 | 33 | 1006.9 |
| 20260905113540 | 70 | 155 | 0.0 | 1.0 | 0.00 | 0.00 | 0.00 | 32 | 1006.8 |
| 20260905113037 | 70 | 155 | 0.0 | 1.0 | 0.00 | 0.00 | 0.00 | 32 | 1006.9 |
| 20260905112535 | 70 | 155 | 0.0 | 0.0 | 0.00 | 0.00 | 0.00 | 32 | 1006.8 |
| 20260905112034 | 70 | 155 | 0.0 | 3.0 | 0.00 | 0.00 | 0.00 | 32 | 1006.8 |
| 20260905111607 | 70 | 155 | 0.0 | 3.0 | 0.00 | 0.00 | 0.00 | 32 | 1006.8 |
| 20260905111033 | 70 | 155 | 0.0 | 2.0 | 0.00 | 0.00 | 0.00 | 32 | 1006.8 |
| 20260905110532 | 70 | 155 | 0.0 | 1.0 | 0.00 | 0.00 | 0.00 | 32 | 1006.8 |
| 20260905110032 | 70 | 155 | 0.0 | 1.0 | 0.00 | 0.00 | 0.00 | 32 | 1006.8 |
| 20260905105532 | 70 | 155 | 0.0 | 1.0 | 0.00 | 0.00 | 0.00 | 32 | 1006.8 |
| 20260905105029 | 71 | 155 | 0.0 | 2.0 | 0.00 | 0.00 | 0.00 | 31 | 1006.8 |
| 20260905104529 | 71 | 155 | 0.0 | 5.0 | 0.00 | 0.00 | 0.00 | 31 | 1006.8 |
| 20260905104028 | 72 | 156 | 1.0 | 5.0 | 0.00 | 0.00 | 0.00 | 30 | 1006.7 |
| 20260905103528 | 72 | 165 | 0.0 | 2.0 | 0.00 | 0.00 | 0.00 | 30 | 1006.7 |
| 20260905103034 | 72 | 165 | 0.0 | 3.0 | 0.00 | 0.00 | 0.00 | 30 | 1006.7 |
| 20260905102525 | 72 | 167 | 0.0 | 3.0 | 0.00 | 0.00 | 0.00 | 30 | 1006.6 |
| 20260905102025 | 72 | 186 | 0.0 | 3.0 | 0.00 | 0.00 | 0.00 | 30 | 1006.6 |
| 20260905101524 | 73 | 202 | 0.0 | 4.0 | 0.00 | 0.00 | 0.00 | 28 | 1006.4 |
| 20260905101027 | 73 | 203 | 0.0 | 4.0 | 0.00 | 0.00 | 0.00 | 28 | 1006.4 |
| 20260905100523 | 73 | 207 | 0.0 | 3.0 | 0.00 | 0.00 | 0.00 | 29 | 1006.4 |
| 20260905100023 | 73 | 208 | 0.0 | 3.0 | 0.00 | 0.00 | 0.00 | 29 | 1006.4 |
| 20260905095521 | 73 | 221 | 0.0 | 2.0 | 0.00 | 0.00 | 0.00 | 29 | 1006.3 |
| 20260905095024 | 73 | 221 | 0.0 | 2.0 | 0.00 | 0.00 | 0.00 | 28 | 1006.5 |
| 20260905094520 | 74 | 221 | 0.0 | 3.0 | 0.00 | 0.00 | 0.00 | 27 | 1006.4 |
| 20260905094020 | 74 | 221 | 0.0 | 3.0 | 0.00 | 0.00 | 0.00 | 27 | 1006.5 |
| 20260905093519 | 74 | 222 | 0.0 | 2.0 | 0.00 | 0.00 | 0.00 | 27 | 1006.4 |
| 20260905093018 | 74 | 222 | 0.0 | 3.0 | 0.00 | 0.00 | 0.00 | 27 | 1006.4 |
| 20260905092517 | 74 | 222 | 0.0 | 5.0 | 0.00 | 0.00 | 0.00 | 27 | 1006.4 |
| 20260905092017 | 74 | 222 | 0.0 | 5.0 | 0.00 | 0.00 | 0.00 | 28 | 1006.4 |
| 20260905091517 | 74 | 227 | 1.0 | 3.0 | 0.00 | 0.00 | 0.00 | 28 | 1006.4 |
| 20260905091015 | 75 | 230 | 0.0 | 1.0 | 0.00 | 0.00 | 0.00 | 27 | 1006.5 |
| 20260905090513 | 75 | 230 | 0.0 | 1.0 | 0.00 | 0.00 | 0.00 | 26 | 1006.4 |
| 20260905090013 | 75 | 230 | 0.0 | 2.0 | 0.00 | 0.00 | 0.00 | 26 | 1006.5 |
| 20260905085513 | 76 | 230 | 0.0 | 3.0 | 0.00 | 0.00 | 0.00 | 25 | 1006.6 |
| 20260905085013 | 76 | 230 | 0.0 | 3.0 | 0.00 | 0.00 | 0.00 | 25 | 1006.5 |
| 20260905084511 | 77 | 232 | 0.0 | 2.0 | 0.00 | 0.00 | 0.00 | 24 | 1006.5 |
| 20260905084012 | 77 | 232 | 0.0 | 2.0 | 0.00 | 0.00 | 0.00 | 24 | 1006.5 |